Flight Track Log - Related Links

Times and Time Zones

All times are in EDT time to prevent confusion due to time zone crossing. See the KLM1596 flight status page for this flight to view local times or setup timezone preferences in your user account.

Time Position Orientation Groundspeed Altitude Reporting Facility
EDT Latitude Longitude Course Direction KTS MPH feet Rate Location/Type
12:45AM 42.9650 10.5130 325° Northwest 393 452 36,800  Level FlightAware
12:46AM 43.0570 10.4240 325° Northwest 388 447 37,900 774 Climbing FlightAware
12:46AM 43.1300 10.3550 325° Northwest 391 450 38,000 70 Climbing FlightAware
12:47AM 43.1930 10.2950 325° Northwest 392 451 38,000  Level FlightAware
12:48AM 43.2560 10.2340 325° Northwest 393 452 38,000  Level FlightAware
12:48AM 43.3150 10.1760 324° Northwest 392 451 38,000  Level FlightAware
12:49AM 43.3800 10.1150 326° Northwest 390 449 38,000  Level FlightAware
12:50AM 43.4390 10.0580 325° Northwest 390 449 38,000  Level FlightAware
12:51AM 43.5200 9.9790 325° Northwest 390 449 38,000  Level FlightAware
12:51AM 43.5680 9.9310 324° Northwest 390 449 38,000  Level FlightAware
12:52AM 43.6520 9.8500 325° Northwest 391 450 38,000  Level FlightAware
12:53AM 43.7210 9.7830 325° Northwest 394 453 38,000  Level FlightAware
12:54AM 43.7730 9.7320 325° Northwest 395 455 38,000  Level FlightAware
12:54AM 43.8400 9.6660 325° Northwest 397 457 38,000  Level FlightAware
12:57AM 44.0479 9.5644 341° North  Level Estimated
12:57AM 44.0680 9.4390 341° North 398 458 38,000  Level FlightAware
01:00AM 44.3213 9.3171 341° North  Level Estimated
01:01AM 44.4174 9.2705 341° North  Level Estimated
01:02AM 44.5135 9.2238 341° North  Level Estimated
01:03AM 44.6096 9.1769 341° North  Level Estimated
01:03AM 44.6050 8.8610 341° North 389 448 38,000  Level FlightAware
01:04AM 44.6680 8.7830 319° Northwest 389 448 38,000  Level FlightAware
01:05AM 44.7220 8.7160 319° Northwest 389 448 38,000  Level FlightAware
01:05AM 44.7760 8.6490 319° Northwest 389 448 38,000  Level FlightAware
01:06AM 44.8310 8.5810 319° Northwest 390 449 38,000  Level FlightAware
01:07AM 44.9060 8.4870 318° Northwest 390 449 38,000  Level FlightAware
01:08AM 45.0200 8.3430 318° Northwest 390 449 38,000  Level FlightAware
01:09AM 45.0780 8.2700 318° Northwest 390 449 38,000  Level FlightAware
01:11AM 45.2560 8.0420 318° Northwest 391 450 38,000  Level FlightAware
01:12AM 45.3200 7.9600 318° Northwest 392 451 38,000  Level FlightAware
01:13AM 45.3880 7.8900 324° Northwest 391 450 38,000  Level FlightAware
01:13AM 45.4480 7.8360 328° Northwest 392 451 38,000  Level FlightAware
01:14AM 45.5100 7.7800 328° Northwest 393 452 38,000  Level FlightAware
01:15AM 45.5790 7.7170 327° Northwest 394 453 38,000  Level FlightAware
01:15AM 45.6360 7.6750 333° Northwest 397 457 38,000  Level FlightAware
01:16AM 45.7120 7.6330 339° North 397 457 38,000  Level FlightAware
01:17AM 45.7720 7.5970 337° Northwest 397 457 38,000  Level FlightAware
01:17AM 45.8540 7.5500 338° Northwest 399 459 38,000  Level FlightAware
01:18AM 45.9250 7.5090 338° Northwest 400 460 38,000  Level FlightAware
01:19AM 45.9940 7.4700 339° North 399 459 38,000  Level FlightAware
01:20AM 46.0650 7.4280 338° Northwest 400 460 38,000  Level FlightAware
01:21AM 46.1980 7.3510 338° Northwest 400 460 38,000  Level FlightAware
01:21AM 46.2640 7.3130 338° Northwest 400 460 38,000  Level FlightAware
01:22AM 46.3670 7.2520 338° Northwest 400 460 38,000  Level FlightAware
01:23AM 46.4430 7.2070 338° Northwest 400 460 38,000  Level FlightAware
01:24AM 46.5140 7.1660 338° Northwest 401 461 38,000  Level FlightAware
01:25AM 46.5810 7.1260 338° Northwest 401 461 38,000  Level FlightAware
01:25AM 46.6540 7.0830 338° Northwest 402 463 38,000  Level FlightAware
01:26AM 46.7240 7.0410 338° Northwest 403 464 38,000  Level FlightAware
01:27AM 46.8070 6.9920 338° Northwest 404 465 38,000  Level FlightAware
01:27AM 46.8740 6.9510 337° Northwest 403 464 38,000  Level FlightAware
01:28AM 46.9520 6.9080 339° North 406 467 38,000  Level FlightAware
01:29AM 47.0240 6.8880 349° North 408 470 38,000  Level FlightAware
01:29AM 47.1020 6.8680 350° North 409 471 38,000  Level FlightAware
01:30AM 47.2010 6.8430 350° North 410 472 38,000  Level FlightAware
01:31AM 47.2810 6.8230 350° North 411 473 38,000  Level FlightAware
01:32AM 47.3650 6.8010 350° North 411 473 38,000  Level FlightAware
01:32AM 47.4380 6.7830 351° North 413 475 38,000  Level FlightAware
01:33AM 47.5140 6.7630 350° North 414 476 38,000  Level FlightAware
01:34AM 47.6000 6.7410 350° North 415 478 38,000  Level FlightAware
01:35AM 47.6730 6.7220 350° North 415 478 38,000  Level FlightAware
01:35AM 47.7440 6.7040 350° North 414 476 38,000  Level FlightAware
01:36AM 47.8300 6.6820 350° North 411 473 38,000  Level FlightAware
01:37AM 47.9030 6.6620 350° North 408 470 38,000  Level FlightAware
01:37AM 47.9960 6.6380 350° North 404 465 38,000  Level FlightAware
01:38AM 48.0600 6.6210 350° North 405 466 38,000  Level FlightAware
01:39AM 48.1510 6.5970 350° North 408 470 38,000  Level FlightAware
01:39AM 48.2270 6.5780 351° North 408 470 38,000  Level FlightAware
01:40AM 48.2880 6.5610 349° North 408 470 38,000  Level FlightAware
01:41AM 48.4090 6.5290 350° North 410 472 38,000  Level FlightAware
01:42AM 48.4890 6.5080 350° North 411 473 38,000  Level FlightAware
01:42AM 48.5620 6.4880 350° North 413 475 38,000  Level FlightAware
01:43AM 48.6540 6.4630 350° North 417 480 38,000  Level FlightAware
01:44AM 48.7290 6.4430 350° North 418 481 38,000  Level FlightAware
01:45AM 48.8040 6.4220 350° North 420 483 38,000  Level FlightAware
01:45AM 48.8520 6.4100 351° North 421 484 38,000  Level FlightAware
01:46AM 48.9830 6.3540 344° North 411 473 38,000  Level FlightAware
01:47AM 49.0360 6.3060 329° Northwest 410 472 38,000  Level FlightAware
01:48AM 49.1220 6.2270 329° Northwest 408 470 38,000  Level FlightAware
01:48AM 49.1910 6.1650 330° Northwest 406 467 38,000  Level FlightAware
01:49AM 49.2520 6.1080 329° Northwest 406 467 38,000  Level FlightAware
01:50AM 49.3740 5.9970 329° Northwest 400 460 38,000  Level FlightAware
01:51AM 49.4330 5.9440 330° Northwest 409 471 38,000  Level FlightAware
01:52AM 49.5220 5.8610 329° Northwest 411 473 38,000  Level FlightAware
01:52AM 49.5930 5.7960 329° Northwest 413 475 38,000  Level FlightAware
01:53AM 49.6670 5.7260 329° Northwest 414 476 38,000  Level FlightAware
01:54AM 49.7320 5.6660 329° Northwest 414 476 38,000  Level FlightAware
01:55AM 49.8070 5.5950 329° Northwest 414 476 38,000 -214 Level FlightAware
01:56AM 49.9180 5.4910 329° Northwest 413 475 37,600 -864 Descending FlightAware
01:57AM 50.0120 5.4030 329° Northwest 412 474 36,200 -1,471 Descending FlightAware
01:57AM 50.0850 5.3330 328° Northwest 415 478 35,100 -1,500 Descending FlightAware
01:58AM 50.1500 5.2700 328° Northwest 419 482 34,100 -1,429 Descending FlightAware
01:59AM 50.2240 5.2000 329° Northwest 421 484 33,100 -1,395 Descending FlightAware
02:00AM 50.2930 5.1340 329° Northwest 416 479 32,100 -805 Descending FlightAware
02:00AM 50.3570 5.0710 328° Northwest 413 475 32,000 -366 Descending FlightAware
02:01AM 50.4260 5.0060 329° Northwest 411 473 31,600 -600 Descending FlightAware
02:02AM 50.4860 4.9480 328° Northwest 407 468 31,200 -628 Descending FlightAware
02:02AM 50.5630 4.8720 328° Northwest 405 466 30,700 -667 Descending FlightAware
02:03AM 50.6300 4.8060 328° Northwest 405 466 30,200 -675 Descending FlightAware
02:04AM 50.6920 4.7470 329° Northwest 402 463 29,800 -1,350 Descending FlightAware
02:04AM 50.7550 4.6840 328° Northwest 396 456 28,400 -2,089 Descending FlightAware
02:06AM 50.8620 4.5780 328° Northwest 381 438 25,900 -1,875 Descending FlightAware
02:06AM 50.9190 4.5060 321° Northwest 369 425 24,900 -1,133 Descending FlightAware
02:07AM 50.9690 4.4050 308° West 366 421 24,200 -951 Descending FlightAware
02:08AM 51.0071 4.3319 308° West 402 463 23,600 -900 Descending FlightAware UK
02:08AM 51.0140 4.3180 308° West 362 417 23,600 -783 Level FlightAware
02:08AM 51.0550 4.2360 308° West 361 415 23,000 -878 Descending FlightAware
02:08AM 51.0572 4.2320 308° West 398 458 23,000 -837 Level FlightAware UK
02:09AM 51.0999 4.1443 308° West 396 456 22,400 -800 Descending FlightAware UK
02:09AM 51.1020 4.1410 308° West 359 413 22,400 -769 Level FlightAware
02:10AM 51.1400 4.0640 308° West 357 411 21,900 -805 Descending FlightAware
02:11AM 51.1840 3.9740 308° West 349 402 21,300 -815 Descending FlightAware
02:11AM 51.2308 3.9139 308° West 384 442 20,800 -837 Descending FlightAware UK
02:11AM 51.2420 3.9090 308° West 360 414 20,700 -529 Descending FlightAware
02:12AM 51.2780 3.9120 North 359 413 20,500 -828 Descending FlightAware
02:12AM 51.3408 3.9354 North 382 440 19,900 -837 Descending FlightAware UK
02:12AM 51.3550 3.9390 North 364 419 19,900 -857 Level FlightAware
02:13AM 51.4091 3.9585 North 376 433 19,300 -1,143 Descending FlightAware UK
02:13AM 51.4240 3.9620 North 355 409 19,100 -1,412 Descending FlightAware
02:14AM 51.4870 3.9840 12° North 349 402 18,100 -1,714 Descending FlightAware
02:15AM 51.5540 4.0070 12° North 344 396 16,700 -2,000 Descending FlightAware
02:15AM 51.6190 4.0300 12° North 337 388 15,300 -2,000 Descending FlightAware
02:16AM 51.6850 4.0530 12° North 330 380 13,900 -1,909 Descending FlightAware
02:17AM 51.7460 4.0740 12° North 324 373 12,500 -1,929 Descending FlightAware
02:17AM 51.8050 4.0950 12° North 321 369 11,200 -1,714 Descending FlightAware
02:18AM 51.8640 4.1510 30° Northeast 312 359 10,100 -1,147 Descending FlightAware
02:18AM 51.8900 4.1840 38° Northeast 293 337 9,900 -732 Descending FlightAware
02:19AM 51.9070 4.2070 40° Northeast 287 330 9,600 -955 Descending FlightAware
02:19AM 51.9360 4.2420 37° Northeast 282 325 9,200 -882 Descending FlightAware
02:20AM 51.9770 4.2950 39° Northeast 280 322 8,600 -808 Descending FlightAware
02:20AM 51.9890 4.3110 39° Northeast 281 323 8,500 -649 Descending FlightAware
02:20AM 52.0150 4.3440 38° Northeast 272 313 8,200 -750 Descending FlightAware
02:21AM 52.0440 4.3800 37° Northeast 270 311 7,800 -750 Descending FlightAware
02:22AM 52.0780 4.4240 38° Northeast 269 310 7,400 -590 Descending FlightAware
02:22AM 52.1030 4.4560 38° Northeast 267 307 7,200 -462 Descending FlightAware
02:22AM 52.1280 4.4880 38° Northeast 267 307 7,000 -226 Descending FlightAware
02:23AM 52.1560 4.5240 38° Northeast 264 304 7,000  Level FlightAware
02:23AM 52.1830 4.5580 38° Northeast 264 304 7,000  Level FlightAware
02:24AM 52.2080 4.5900 38° Northeast 264 304 7,000  Level FlightAware
02:24AM 52.2230 4.6090 38° Northeast 264 304 7,000  Level FlightAware
02:24AM 52.2480 4.6410 38° Northeast 265 305 7,000  Level FlightAware
02:25AM 52.2670 4.6660 39° Northeast 265 305 7,000  Level FlightAware
02:25AM 52.2950 4.7020 38° Northeast 264 304 7,000  Level FlightAware
02:26AM 52.3300 4.7470 38° Northeast 267 307 7,000 -500 Level FlightAware
02:26AM 52.3560 4.7870 43° Northeast 268 308 6,500 -1,241 Descending FlightAware
02:27AM 52.3810 4.8260 44° Northeast 269 310 5,800 -1,429 Descending FlightAware
02:27AM 52.3960 4.8490 43° Northeast 268 308 5,500 -878 Descending FlightAware
02:28AM 52.4200 4.8850 42° Northeast 266 306 5,200 -750 Descending FlightAware
02:28AM 52.4460 4.9230 42° Northeast 262 302 4,800 -818 Descending FlightAware
02:28AM 52.4620 4.9320 19° North 249 287 4,600 -889 Descending FlightAware
02:28AM 52.4760 4.9340 North 242 278 4,400 -900 Descending FlightAware
02:29AM 52.5070 4.9370 North 234 269 4,000 -857 Descending FlightAware
02:29AM 52.5370 4.9400 North 231 266 3,600 -828 Descending FlightAware
02:30AM 52.5610 4.9150 328° Northwest 201 231 3,200 -750 Descending FlightAware
02:30AM 52.5630 4.8990 282° West 194 223 3,100 -474 Descending FlightAware
02:31AM 52.5580 4.8630 257° West 178 205 2,900 -346 Descending FlightAware
02:31AM 52.5540 4.8300 259° West 167 192 2,800 -130 Descending FlightAware
02:31AM 52.5500 4.8040 256° West 166 191 2,800  Level FlightAware
02:31AM 52.5450 4.7930 233° Southwest 171 197 2,800  Level FlightAware
02:32AM 52.5250 4.7720 213° Southwest 174 200 2,800  Level FlightAware
02:32AM 52.5030 4.7570 203° Southwest 183 211 2,800 -207 Level FlightAware
02:33AM 52.4770 4.7530 185° South 187 215 2,600 -724 Descending FlightAware
02:33AM 52.4530 4.7510 183° South 186 214 2,100 -1,000 Descending FlightAware
02:34AM 52.4310 4.7490 183° South 184 212 1,700 -964 Descending FlightAware
02:34AM 52.4060 4.7470 183° South 185 213 1,200 -831 Descending FlightAware
02:35AM 52.3810 4.7450 183° South 161 185 800 -844 Descending FlightAware
02:35AM 52.3590 4.7430 183° South 129 148 300 -1,034 Descending FlightAware
02:36AM 52.3370 4.7410 183° South 133 153 -529 Descending FlightAware
02:36AM 52.3210 4.7390 184° South 110 127  Level FlightAware
02:37AM 52.3140 4.7380 185° South 29 33  Level FlightAware
02:37AM 52.3110 4.7400 158° South 24 28  Level FlightAware
02:38AM 52.3090 4.7410 163° South 26 30  Level FlightAware
02:38AM 52.3040 4.7410 180° South 20 23  Level FlightAware
02:39AM 52.3030 4.7440 119° Southeast 19 22  Level FlightAware
02:39AM 52.3010 4.7470 137° Southeast 26 30  Level FlightAware
02:42AM 52.3086 4.7639 54° Northeast  Level Estimated
02:43AM 52.3086 4.7639 348° North  Level Estimated
02:44AM 52.3086 4.7639 348° North  Level Estimated
02:45AM 52.3086 4.7639 348° North  Level Estimated
02:46AM 52.3086 4.7639 348° North  Level Estimated

Login

Don't have an account? Register now (free) for customized features, flight alerts, and more!